Hovedside
METAR-TAF:

METAR-TAF

Lufthavner :

Værøy helikopterhavn. Tabbisodden

Værøy, Norge

breddegrad: 67-39-16N, lengdegrad: 12-43-37E, høyde over havet: 5 m

Gjeldene værobservasjon

Denne rapporten ble laget for 15 timer og 27 minutter siden, klokken 13:50 UTC
Vind 18 kt fra Vest med vindkast opp mot 52 kt, skiftende mellom Sør-sørvest og Nordvest
Temperatur 3°C
Luftfuktighet 56%
Trykk 1003 hPa
Sikt 10 km eller mer
Få skyer i en høyde av 1800 ft
Spredte skyer i en høyde av 5200 ft

METAR: ENVR 211350Z 28018G52KT 210V320 9999 FEW018 SCT052 03/M05 Q1003

Tid: 06:17 (05:17 UTC)


TAF: fraværende

Værobservasjoner og værvarsel for over 4000 flyplasser (METAR- og TAF-rapporter).

Tilgjengelige stasjoner er representert av de røde og gule prikkene på kartet.

Hold musepekeren over prikken for å se navnet på stasjonen.

Klikk så for å se værobservasjoner og -varsler.

For å forandre kartet kan du klikke på den grønne knappen med svart kryss for å zoome inn, på den grønne knappen med strek for å zoome ut, eller på de grønne pilene for å se tilstøtende kart.


METAR-TAF: